Location: Gelliehausen
(51.4756°N, 10.0545°E)
Time: 21:53:06
(UTC+00:00)

Daily predictions for brighter satellites

Satellite Brightness Start Highest point End
(mag) Time Altitude Azimuth Time Altitude Azimuth Time Altitude Azimuth
SL-16 R/B 4.0 15:42:53 10° N 15:48:18 33° WNW 15:53:44 10° WSW
Cosmos 2098 Rocket 4.2 15:44:01 10° N 15:50:18 76° E 15:57:31 10° SSE
Cosmos 2221 3.7 15:47:15 10° SE 15:50:38 23° E 15:54:03 10° NE
Cosmos 2360 Rocket 4.3 15:54:48 10° N 15:55:42 10° N 15:56:37 10° NNE
CZ-2C R/B 4.3 15:53:49 10° ENE 15:55:49 12° E 15:57:48 10° ESE
CZ-4C R/B 3.5 15:51:07 10° NW 15:56:49 33° NNE 16:03:33 10° ENE
NOAA 12 4.1 15:53:10 10° SSE 15:58:26 65° ENE 16:03:44 10° N
USA 308 3.4 15:56:47 10° SW 16:00:54 50° SSE 16:05:01 10° ENE
Meteor 1-27 4.4 15:55:43 10° SSW 16:01:16 77° WNW 16:06:56 10° N
Cosmos 1869 3.8 16:00:55 10° SSW 16:04:46 60° WNW 16:08:38 10° N
Okean O Rocket 3.0 16:02:37 10° E 16:05:35 18° ENE 16:08:34 10° NNE
ISS -3.7 16:05:14 10° WSW 16:08:38 83° SSE 16:11:56 11° E
Cosmos 2322 Rocket 4.1 16:10:43 10° N 16:12:58 12° NNE 16:15:13 10° NE
Cosmos 1464 Rocket 4.2 16:06:59 10° SSE 16:13:07 53° E 16:19:18 10° NNE
YAOGAN 1 4.4 16:13:14 11° ENE 16:13:59 12° NE 16:15:28 10° NNE
Cosmos 1461 2.9 16:10:18 10° SW 16:14:31 82° NW 16:18:37 10° NE
NOAA 6 4.0 16:09:48 10° SSE 16:14:52 61° ENE 16:19:56 10° N
Cosmos 2084 3.9 16:14:07 10° NW 16:18:08 41° NNE 16:22:18 10° ESE
Cosmos 1408 Rocket 3.6 16:14:06 10° N 16:18:23 55° ENE 16:22:39 10° SSE
Cosmos 1271 Rocket 2.7 16:17:03 10° S 16:20:58 81° E 16:24:58 10° NNE
NOSS 2-1 (E) 2.9 16:18:06 10° SSW 16:21:17 60° SE 16:24:04 14° NE
Cosmos 1697 Rocket 3.2 16:17:21 10° NNW 16:22:36 38° NE 16:27:49 10° ESE
Cosmos 1743 Rocket 4.1 16:18:40 10° N 16:22:41 35° ENE 16:26:40 10° SE
GEOS 3 Rocket 3.9 16:18:27 10° ESE 16:23:27 48° NE 16:28:25 10° NW
CZ-4 R/B 3.4 16:24:22 12° NE 16:24:22 12° NE 16:25:17 10° NNE
CZ-4B R/B 3.2 16:19:28 10° S 16:23:37 74° WSW 16:27:35 10° NNW
Cosmos 1980 Rocket 3.2 16:19:27 10° NNW 16:24:14 26° NE 16:28:50 10° E
Cosmos 1937 Rocket 4.3 16:20:00 10° N 16:24:43 31° NE 16:29:25 10° ESE
Nadezhda 4 Rocket 4.0 16:19:45 10° N 16:26:02 63° ENE 16:32:18 10° SSE
Lacrosse 5 3.9 16:21:51 10° WNW 16:26:22 32° SW 16:30:51 10° SSE
Cosmos 2333 Rocket 4.3 16:24:59 10° NNW 16:26:29 11° N 16:27:59 10° NNE
SL-16 R/B 3.9 16:24:29 10° N 16:27:38 15° NNE 16:29:47 12° NE
USA 267 3.3 16:21:33 12° ENE 16:27:48 87° SSE 16:34:21 10° WSW
deb Kosmos-1763 4.3 16:25:00 10° S 16:28:15 43° ESE 16:30:54 14° NE
Cosmos 1656 3.6 16:23:31 10° NNW 16:29:02 69° ENE 16:34:36 10° SE
USA 305 2.9 16:25:57 10° WSW 16:30:10 76° SSE 16:33:22 17° ENE
CZ-4C R/B 4.3 16:26:19 10° N 16:30:16 48° WNW 16:33:58 10° SW
Cosmos 2237 Rocket 4.4 16:29:21 10° NW 16:31:37 12° NNW 16:33:53 10° N
CZ-2C R/B 3.4 16:26:56 10° S 16:31:54 64° WSW 16:36:42 10° NNW
CZ-4B DEB 4.2 16:28:42 10° SSE 16:34:11 70° ENE 16:39:41 10° NNW
Radarsat 4.5 16:30:00 10° SSE 16:35:10 77° ENE 16:40:24 10° NNW
Cosmos 1340 Rocket 2.9 16:31:23 10° N 16:35:22 53° ENE 16:39:22 10° SSE
Cosmos 1092 Rocket 4.2 16:30:06 10° N 16:36:14 47° ENE 16:42:20 10° SE
Cosmos 2082 Rocket 4.1 16:35:58 10° ESE 16:36:39 11° ESE 16:36:39 11° ESE
USA 229 DEB 3.9 16:30:19 10° NW 16:37:29 68° NE 16:45:10 10° ESE
USA 229 3.9 16:30:25 10° NW 16:37:35 67° NE 16:45:16 10° ESE
Cosmos 990 Rocket 4.0 16:35:17 10° NNW 16:40:29 61° ENE 16:45:37 10° SE
COSMOS 2406 4.5 16:38:11 10° SE 16:42:16 20° E 16:43:56 18° ENE
AQUARIUS 4.1 16:38:30 10° SSE 16:42:59 88° E 16:47:32 10° NNW
Lacrosse 5 rocket 2.1 16:39:38 10° WNW 16:43:10 36° N 16:45:18 21° NE
H-2A R/B 4.3 16:45:36 13° NNE 16:45:36 13° NNE 16:46:21 10° NNE
Cosmos 1602 4.3 16:42:10 10° N 16:45:43 35° ENE 16:49:16 10° SE
USA 276 2.6 16:42:43 10° W 16:45:47 55° SSW 16:47:51 18° ESE
ATLAS 2AS CENTAUR R/B 3.7 16:38:47 10° W 16:46:12 45° NNW 16:52:29 14° NE
Cosmos 1513 Rocket 4.5 16:40:19 10° S 16:46:25 87° W 16:52:40 10° N
SL-16 R/B 4.3 16:43:05 10° WNW 16:46:38 17° NNW 16:50:12 10° NNE
ATLAS CENTAUR R/B 3.7 16:39:29 10° SSW 16:48:09 34° SE 16:50:57 20° E
SJ 16-02 2.8 16:45:04 10° NW 16:49:11 41° WSW 16:53:17 10° S
Cosmos 1933 4.1 16:46:00 10° SSE 16:49:34 30° E 16:51:18 22° NE
PAYLOAD B 4.2 16:44:13 10° SSE 16:49:48 74° ENE 16:55:25 10° NNW
Cosmos 1500 Rocket 3.5 16:48:45 10° N 16:53:14 72° ENE 16:57:39 10° SSE
Cosmos 2034 Rocket 3.9 16:50:23 10° S 16:56:30 74° E 17:02:40 10° NNE
NOSS 3-1 (A) 4.0 16:53:40 10° NW 17:00:56 86° NE 17:09:34 10° SE
USA 306 2.8 16:57:45 10° WSW 17:02:01 84° NNW 17:04:00 31° ENE
CZ-2D R/B 3.2 16:58:20 10° SSE 17:02:11 89° ENE 17:06:03 10° NNW
NOSS 2-1 (C) 3.5 16:59:20 10° WSW 17:02:29 50° NW 17:04:08 25° NNE
Meteor 1-20 Rocket 4.2 16:57:31 10° N 17:03:21 80° ENE 17:09:13 10° SSE
NOSS 3-1 (C) 4.4 16:56:45 10° NW 17:04:01 68° SW 17:12:35 10° SSE
Cosmos 1805 Rocket 3.5 16:59:47 10° N 17:04:06 56° ENE 17:08:21 10° SSE
Cosmos 44 Rocket 4.5 17:01:25 10° NNW 17:05:35 25° NNE 17:06:36 23° NE
Cosmos 1842 Rocket 3.8 17:03:46 10° SSW 17:08:13 74° WNW 17:12:43 10° N
Cosmos 2360 4.1 17:03:34 10° NNW 17:09:19 68° ENE 17:15:01 10° SE
Cosmos 1833 Rocket 3.2 17:04:34 10° S 17:09:43 38° ESE 17:11:52 28° ENE
NOSS 2-2 (D) 4.2 17:07:02 10° NW 17:11:40 55° NE 17:15:22 23° ESE
NOSS 2-1 (D) 3.7 17:08:44 10° WSW 17:11:50 43° NW 17:13:12 27° NNE
NOSS 2-2 (E) 4.2 17:08:19 10° NW 17:13:09 64° NE 17:18:12 18° ESE
Cosmos 2219 Rocket 4.2 17:11:49 10° N 17:13:36 11° NNE 17:14:34 11° NNE
PSLV R/B 4.3 17:10:31 10° S 17:14:08 57° WSW 17:17:48 10° NNW
CZ-4B R/B 3.1 17:09:02 10° SSE 17:14:30 81° ENE 17:19:53 10° NNW
Sich 1 3.0 17:11:03 10° N 17:15:18 58° ENE 17:19:31 10° SSE
USA 307 2.9 17:14:12 10° WSW 17:18:30 78° NNW 17:19:51 42° ENE
ARGOS 3.1 17:13:24 10° SSE 17:18:47 70° ENE 17:24:11 10° N
ERBS 2.0 17:15:55 10° WSW 17:19:08 87° NNW 17:19:27 70° NE
Cosmos 1898 Rocket 3.4 17:13:54 10° NNW 17:19:13 89° ENE 17:24:27 10° SSE
MOS 1-B Rocket 3.9 17:14:17 10° NNE 17:19:57 67° ESE 17:26:11 10° S
H-2A R/B 2.2 17:15:15 10° S 17:20:29 76° WSW 17:25:36 10° NNW
Cosmos 1606 4.2 17:17:13 10° SW 17:20:41 36° WNW 17:24:14 10° N
YAOGAN 3 4.4 17:17:22 10° SSE 17:21:43 72° ENE 17:26:05 10° N
Cosmos 1634 Rocket 4.0 17:15:55 10° S 17:22:05 58° E 17:28:17 10° NNE
SL-24 R/B - RUBIN 2 3.8 17:17:45 10° NW 17:22:20 49° NE 17:23:11 43° ENE
COSMOS 2455 3.8 17:21:07 10° SSE 17:25:52 28° ESE 17:25:52 28° ESE
Landsat 5 3.8 17:27:18 43° ESE 17:27:18 43° ESE 17:30:53 10° S
ATLAS CENTAUR R/B 2.8 17:23:22 10° W 17:27:16 34° NNW 17:29:27 22° NNE
Cosmos 2221 3.7 17:23:54 10° SW 17:27:57 41° WNW 17:32:03 10° N
Cosmos 468 Rocket 3.9 17:22:58 10° S 17:28:02 65° ESE 17:30:21 32° NE
SL-19 R/B 4.4 17:23:31 12° NNE 17:29:07 67° ESE 17:35:29 10° S
CZ-4 R/B 4.3 17:26:14 10° SSE 17:30:21 82° ENE 17:34:32 10° NNW
COSMO-SKYMED 1 2.5 17:29:13 36° NNE 17:30:54 66° ESE 17:35:12 10° S
Meteor 2-16 Rocket 4.4 17:24:58 10° N 17:31:00 56° ENE 17:36:59 10° SSE
Cosmos 2026 Rocket 3.9 17:27:19 10° N 17:33:33 89° W 17:39:39 10° S
SL-08 RB Rocket 3.6 17:32:06 10° SSE 17:36:44 70° ENE 17:41:22 10° N
Cosmos 540 Rocket 3.6 17:31:52 10° S 17:36:45 48° ESE 17:37:03 47° E
CZ-2C R/B 2.4 17:32:51 16° NNE 17:37:07 73° ESE 17:42:16 10° S
deb Chang Zheng 4 3.9 17:32:53 10° S 17:37:10 67° WSW 17:41:29 10° NNW
Cosmos 1500 3.0 17:35:54 10° N 17:39:41 86° E 17:40:06 70° SSE
SJ-11-01 4.4 17:35:56 10° S 17:40:42 78° WSW 17:45:29 10° NNW
USA 308 2.9 17:36:31 10° W 17:40:46 69° NNW 17:41:12 63° NNE
Okean O Rocket 1.8 17:36:59 10° S 17:41:26 75° WSW 17:45:55 10° NNW
Helios 1B 4.4 17:40:04 42° NNE 17:41:30 82° ESE 17:45:50 10° SSW
Cosmos 2360 Rocket 3.8 17:38:13 10° NNW 17:41:19 18° NNE 17:41:19 18° NNE
Meteor 2-21 4.5 17:38:56 10° NNW 17:45:05 81° W 17:51:08 10° S
ISS -3.2 17:42:06 10° W 17:44:55 58° W 17:44:55 58° W
CZ-4C R/B 2.9 17:39:46 10° NW 17:46:34 65° NE 17:49:48 37° ESE
YAOGAN 1 3.0 17:50:23 48° N 17:50:23 48° N 17:53:37 10° N
Meteor 1-5 Rocket 4.2 17:48:17 10° N 17:54:18 74° ENE 18:00:15 10° SSE
CZ-4 R/B 3.1 18:00:22 24° N 18:00:22 24° N 18:02:03 10° NNW
Cosmos 2369 3.8 17:52:52 10° NNW 17:58:39 78° WSW 18:02:24 22° SSE
Cosmos 2322 Rocket 3.5 17:54:06 10° NNW 17:57:36 26° NNE 17:57:36 26° NNE
GEOS 3 Rocket 4.4 17:56:54 13° SSE 18:01:30 50° SW 18:06:34 10° NW
NOAA 15 4.5 17:56:47 10° SSE 18:02:06 89° ENE 18:07:26 10° NNW
Cosmos 1782 3.3 17:59:17 10° SSW 18:02:35 56° SW 18:02:35 56° SW
Cosmos 1697 Rocket 3.6 18:01:20 10° NW 18:06:43 48° WSW 18:12:05 10° S
Cosmos 1937 Rocket 4.2 18:01:47 10° NNW 18:06:58 54° WSW 18:12:08 10° S
Cosmos 1980 Rocket 2.2 18:03:12 10° NNW 18:08:55 82° WSW 18:10:40 46° SSE
NOSS 2-2 (C) 4.3 18:04:04 10° NW 18:09:01 78° SW 18:10:59 46° SSE
Cosmos 1763 Rocket 3.8 18:04:44 10° SW 18:09:44 60° WNW 18:11:17 41° N
USA 305 3.6 18:05:58 10° W 18:09:22 50° NW 18:09:22 50° NW
USA 267 3.5 18:08:54 45° NE 18:10:39 59° N 18:17:02 10° W
Cosmos 841 Rocket 3.8 18:06:10 10° SSW 18:10:09 53° S 18:10:09 53° S
Cosmos 1666 Rocket 4.0 18:07:47 10° NNW 18:11:32 58° NW 18:11:32 58° NW
Cosmos 2333 Rocket 4.1 18:09:15 10° NNW 18:11:35 17° N 18:11:35 17° N
SL-16 R/B 3.2 18:08:00 10° NNW 18:11:39 33° N 18:11:39 33° N
Cosmos 2237 Rocket 4.5 18:16:55 10° N 18:17:57 11° N 18:17:57 11° N
Cosmos 2082 Rocket 2.9 18:14:47 10° SSW 18:18:33 41° S 18:18:33 41° S
IRS-1C Rocket 4.3 18:23:27 60° NNW 18:23:27 60° NNW 18:27:45 10° NNW
Lacrosse 5 rocket 3.1 18:18:59 10° WNW 18:20:53 26° NW 18:20:53 26° NW
Cosmos 2278 3.6 18:18:59 10° NNW 18:24:44 84° WSW 18:24:47 84° SW
COSMOS 2406 3.2 18:20:08 10° SSW 18:25:54 82° WNW 18:26:02 81° NW
Cosmos 1818 4.2 18:27:02 10° NW 18:31:01 47° NNW 18:31:01 47° NNW
ATLAS 2AS CENTAUR R/B 3.9 18:32:15 10° WNW 18:38:59 32° N 18:39:54 31° NNE
Cosmos 1833 Rocket 3.5 18:48:12 10° SW 18:53:36 46° NW 18:53:36 46° NW
Cosmos 2266 Rocket 4.4 18:52:41 10° NNW 18:58:09 61° NW 18:58:09 61° NW
Cosmos 2219 Rocket 4.4 18:55:06 10° NNW 18:56:17 15° N 18:56:17 15° N
ATLAS CENTAUR R/B 4.3 19:04:28 10° NW 19:05:34 14° NW 19:05:34 14° NW
COSMOS 2455 4.0 19:05:33 10° SW 19:09:04 37° SW 19:09:04 37° SW
ATLAS CENTAUR R/B 4.4 19:13:31 10° WSW 19:16:49 25° W 19:16:49 25° W
Cosmos 2360 Rocket 4.4 19:21:44 10° NNW 19:23:05 18° NNW 19:23:05 18° NNW
CZ-4C R/B 3.7 19:28:22 10° NW 19:35:02 47° WSW 19:35:02 47° WSW
Cosmos 2322 Rocket 4.4 19:37:57 10° NNW 19:39:25 19° NW 19:39:25 19° NW
